Previsão horária em Abolmasovo

Hoje, 18 Maio, Terça-feira

Tempo Temperatura Precipitação Vento Pressão Humidade
00:00 +18°C° 0 mm 4 m/s 736 mmHg 88%
01:00 +17°C° 0 mm 4 m/s 736 mmHg 91%
02:00 +16°C° 0 mm 3 m/s 736 mmHg 93%
03:00 +16°C° 0 mm 3 m/s 736 mmHg 93%
04:00 +17°C° 0 mm 3 m/s 736 mmHg 94%
05:00 +17°C° 0 mm 2 m/s 735 mmHg 94%
06:00 +18°C° 0 mm 3 m/s 736 mmHg 88%
07:00 +20°C° 0 mm 3 m/s 736 mmHg 82%
08:00 +21°C° 0 mm 4 m/s 736 mmHg 77%
09:00 +22°C° 0.5 mm 4 m/s 736 mmHg 74%
10:00 +23°C° 0.5 mm 5 m/s 736 mmHg 71%
11:00 +24°C° 0.5 mm 6 m/s 736 mmHg 68%
12:00 +24°C° 0.2 mm 6 m/s 735 mmHg 67%
13:00 +25°C° 0.2 mm 5 m/s 735 mmHg 65%
14:00 +25°C° 0.2 mm 5 m/s 735 mmHg 63%
15:00 +23°C° 0.5 mm 5 m/s 735 mmHg 69%
16:00 +21°C° 0.5 mm 6 m/s 734 mmHg 74%
17:00 +20°C° 0.5 mm 6 m/s 734 mmHg 79%
18:00 +19°C° 0.6 mm 5 m/s 734 mmHg 84%
19:00 +17°C° 0.6 mm 4 m/s 735 mmHg 88%
20:00 +16°C° 0.6 mm 3 m/s 735 mmHg 93%
21:00 +16°C° 0.1 mm 3 m/s 735 mmHg 93%
22:00 +16°C° 0.1 mm 3 m/s 735 mmHg 93%
23:00 +14°C° 0.1 mm 3 m/s 735 mmHg 92%

Amanhã, 19 Maio, Quarta-feira

Tempo Temperatura Precipitação Vento Pressão Humidade
00:00 +14°C° 0 mm 3 m/s 735 mmHg 94%
01:00 +13°C° 0 mm 3 m/s 735 mmHg 95%
02:00 +13°C° 0 mm 3 m/s 735 mmHg 96%
03:00 +13°C° 0 mm 3 m/s 735 mmHg 96%
04:00 +13°C° 0 mm 3 m/s 735 mmHg 96%
05:00 +13°C° 0 mm 3 m/s 735 mmHg 95%
06:00 +14°C° 0.1 mm 3 m/s 735 mmHg 90%
07:00 +17°C° 0.1 mm 3 m/s 736 mmHg 84%
08:00 +18°C° 0.1 mm 4 m/s 736 mmHg 79%
09:00 +18°C° 0.4 mm 4 m/s 736 mmHg 76%
10:00 +19°C° 0.4 mm 4 m/s 736 mmHg 72%
11:00 +20°C° 0.4 mm 4 m/s 736 mmHg 69%
12:00 +20°C° 0.4 mm 4 m/s 736 mmHg 68%
13:00 +20°C° 0.4 mm 4 m/s 736 mmHg 67%
14:00 +21°C° 0.4 mm 4 m/s 736 mmHg 66%
15:00 +20°C° 0.7 mm 3 m/s 736 mmHg 72%
16:00 +19°C° 0.7 mm 3 m/s 736 mmHg 79%
17:00 +18°C° 0.7 mm 3 m/s 736 mmHg 86%
18:00 +17°C° 0.8 mm 3 m/s 736 mmHg 89%
19:00 +16°C° 0.8 mm 3 m/s 736 mmHg 92%
20:00 +15°C° 0.8 mm 2 m/s 736 mmHg 96%
21:00 +15°C° 0.3 mm 2 m/s 736 mmHg 96%
22:00 +14°C° 0.3 mm 1 m/s 735 mmHg 97%
23:00 +14°C° 0.3 mm 1 m/s 735 mmHg 97%

Depois de amanhã, 20 Maio, Quinta-feira

Tempo Temperatura Precipitação Vento Pressão Humidade
00:00 +14°C° 0.3 mm 1 m/s 735 mmHg 97%
01:00 +14°C° 0.3 mm 2 m/s 735 mmHg 96%
02:00 +14°C° 0.3 mm 2 m/s 735 mmHg 96%
03:00 +12°C° 0.2 mm 3 m/s 735 mmHg 95%
04:00 +12°C° 0.2 mm 3 m/s 735 mmHg 95%
05:00 +12°C° 0.2 mm 3 m/s 735 mmHg 94%
06:00 +12°C° 0.5 mm 3 m/s 735 mmHg 95%
07:00 +12°C° 0.5 mm 3 m/s 735 mmHg 95%
08:00 +12°C° 0.5 mm 4 m/s 735 mmHg 96%
09:00 +12°C° 0.5 mm 4 m/s 735 mmHg 95%
10:00 +13°C° 0.5 mm 4 m/s 735 mmHg 93%
11:00 +13°C° 0.5 mm 4 m/s 735 mmHg 92%
12:00 +13°C° 0.2 mm 4 m/s 735 mmHg 91%
13:00 +13°C° 0.2 mm 3 m/s 735 mmHg 90%
14:00 +13°C° 0.2 mm 3 m/s 735 mmHg 89%
15:00 +14°C° 0.4 mm 4 m/s 735 mmHg 89%
16:00 +14°C° 0.4 mm 4 m/s 735 mmHg 88%
17:00 +15°C° 0.4 mm 5 m/s 735 mmHg 88%
18:00 +14°C° 0.3 mm 5 m/s 736 mmHg 90%
19:00 +12°C° 0.3 mm 4 m/s 736 mmHg 92%
20:00 +11°C° 0.3 mm 4 m/s 737 mmHg 94%
21:00 +10°C° 0.1 mm 4 m/s 737 mmHg 94%
22:00 +8°C° 0.1 mm 4 m/s 737 mmHg 94%
23:00 +8°C° 0.1 mm 5 m/s 737 mmHg 94%

21 Maio, Sexta-feira

Tempo Temperatura Precipitação Vento Pressão Humidade
00:00 +7°C° 0 mm 5 m/s 737 mmHg 94%
01:00 +7°C° 0 mm 5 m/s 737 mmHg 94%
02:00 +7°C° 0 mm 6 m/s 738 mmHg 94%
03:00 +7°C° 0.1 mm 6 m/s 738 mmHg 93%
04:00 +7°C° 0.1 mm 6 m/s 738 mmHg 93%
05:00 +7°C° 0.1 mm 6 m/s 739 mmHg 93%
06:00 +7°C° 0.1 mm 6 m/s 739 mmHg 93%
07:00 +8°C° 0.1 mm 6 m/s 739 mmHg 93%
08:00 +8°C° 0.1 mm 5 m/s 740 mmHg 92%
09:00 +9°C° 0.1 mm 6 m/s 741 mmHg 87%
10:00 +10°C° 0.1 mm 6 m/s 741 mmHg 82%
11:00 +13°C° 0.1 mm 6 m/s 742 mmHg 77%
12:00 +14°C° 0 mm 6 m/s 742 mmHg 69%
13:00 +15°C° 0 mm 5 m/s 743 mmHg 61%
14:00 +18°C° 0 mm 4 m/s 743 mmHg 53%
15:00 +17°C° 0 mm 3 m/s 743 mmHg 56%
16:00 +17°C° 0 mm 3 m/s 743 mmHg 59%
17:00 +17°C° 0 mm 2 m/s 744 mmHg 62%
18:00 +16°C° 0 mm 2 m/s 744 mmHg 64%
19:00 +14°C° 0 mm 2 m/s 745 mmHg 67%
20:00 +13°C° 0 mm 2 m/s 745 mmHg 70%
21:00 +13°C° 0 mm 2 m/s 745 mmHg 71%
22:00 +13°C° 0 mm 2 m/s 745 mmHg 72%
23:00 +12°C° 0 mm 2 m/s 745 mmHg 72%

22 Maio, Sábado

Tempo Temperatura Precipitação Vento Pressão Humidade
00:00 +12°C° 0 mm 2 m/s 745 mmHg 72%
01:00 +12°C° 0 mm 2 m/s 745 mmHg 72%
02:00 +12°C° 0 mm 2 m/s 745 mmHg 72%
03:00 +12°C° 0 mm 2 m/s 745 mmHg 74%
04:00 +12°C° 0 mm 2 m/s 745 mmHg 76%
05:00 +12°C° 0 mm 2 m/s 745 mmHg 78%
06:00 +12°C° 0 mm 2 m/s 745 mmHg 80%
07:00 +11°C° 0 mm 3 m/s 745 mmHg 82%
08:00 +12°C° 0 mm 3 m/s 745 mmHg 84%
09:00 +12°C° 0 mm 3 m/s 745 mmHg 84%
10:00 +12°C° 0 mm 3 m/s 745 mmHg 85%
11:00 +12°C° 0 mm 3 m/s 745 mmHg 85%
12:00 +12°C° 0 mm 4 m/s 745 mmHg 84%
13:00 +12°C° 0 mm 4 m/s 745 mmHg 83%
14:00 +12°C° 0 mm 4 m/s 745 mmHg 83%
15:00 +13°C° 0.1 mm 4 m/s 745 mmHg 83%
16:00 +13°C° 0.1 mm 4 m/s 745 mmHg 84%
17:00 +13°C° 0.1 mm 4 m/s 745 mmHg 85%
18:00 +12°C° 0 mm 3 m/s 744 mmHg 89%
19:00 +11°C° 0 mm 3 m/s 744 mmHg 92%
20:00 +10°C° 0 mm 3 m/s 744 mmHg 96%
21:00 +10°C° 0 mm 3 m/s 744 mmHg 96%
22:00 +10°C° 0 mm 2 m/s 743 mmHg 96%
23:00 +10°C° 0 mm 2 m/s 743 mmHg 96%

23 Maio, Domingo

Tempo Temperatura Precipitação Vento Pressão Humidade
00:00 +10°C° 0 mm 2 m/s 743 mmHg 96%
01:00 +10°C° 0 mm 2 m/s 743 mmHg 96%
02:00 +10°C° 0 mm 2 m/s 743 mmHg 96%
03:00 +12°C° 0 mm 2 m/s 742 mmHg 96%
04:00 +12°C° 0 mm 2 m/s 742 mmHg 96%
05:00 +12°C° 0 mm 2 m/s 742 mmHg 96%
06:00 +13°C° 0 mm 2 m/s 742 mmHg 93%
07:00 +14°C° 0 mm 1 m/s 741 mmHg 90%
08:00 +15°C° 0 mm 1 m/s 741 mmHg 88%
09:00 +16°C° 0 mm 1 m/s 741 mmHg 85%
10:00 +18°C° 0 mm 1 m/s 741 mmHg 81%
11:00 +19°C° 0 mm 1 m/s 741 mmHg 78%
12:00 +19°C° 0 mm 2 m/s 740 mmHg 77%
13:00 +19°C° 0 mm 2 m/s 740 mmHg 76%
14:00 +20°C° 0 mm 3 m/s 740 mmHg 75%
15:00 +19°C° 0 mm 3 m/s 740 mmHg 76%
16:00 +19°C° 0 mm 3 m/s 740 mmHg 78%
17:00 +19°C° 0 mm 4 m/s 740 mmHg 79%
18:00 +17°C° 0 mm 3 m/s 741 mmHg 83%
19:00 +16°C° 0 mm 3 m/s 741 mmHg 86%
20:00 +14°C° 0 mm 3 m/s 741 mmHg 89%
21:00 +13°C° 0 mm 3 m/s 741 mmHg 91%
22:00 +13°C° 0 mm 3 m/s 742 mmHg 93%
23:00 +12°C° 0 mm 3 m/s 742 mmHg 95%
Mostrar mais

Necessitamos do seu Consentimento

A Meteoprog e os seus Fornecedores de Serviços podem armazenar e aceder a dados pessoais como cookies, identificadores do dispositivo ou outras tecnologias semelhantes existentes no seu dispositivo e processar estes dados para personalizar conteúdos e anúncios, assim como funcionalidades nas redes sociais e análise de tráfego.

  • Armazenar e/ou aceder a informações no seu dispositivo

    Os cookies, identificadores do dispositivo ou outras informações podem ser armazenados ou acedidos no seu dispositivo, para os fins acima indicados.

  • Anúncios e conteúdos personalizados, medição de anúncios e conteúdos, dados sobre o público-alvo e desenvolvimento de produtos

    Os anúncios e os conteúdos podem ser personalizados com base num perfil. Podem ser adicionados dados adicionais para uma maior personalização dos anúncios e dos conteúdos. A eficácia dos anúncios e dos conteúdos pode ser medida. Podem ser obtidas informações sobre o público que visualizou os anúncios e os conteúdos. Estes dados podem ser usados para desenvolver ou melhorar sistemas, softwares ou a experiência do utilizador.

Ao clicar em "Eu concordo”, permitirá o uso de cookies, identificadores do dispositivo e web beacons mencionados ou outras tecnologias semelhantes. As configurações do navegador do seu dispositivo podem ser alteradas.

Para certos fins, podem ser invocados interesses legítimos ao invés de consentimento. Pode ler mais informação sobre este assunto na nossa Política de Privacidade e Cookies.